Home > Time Zones > World Clock > Weather > U.S.A. > Gary > Past weeks

Flag for U.S.A. Weather past 2 weeks in Gary, Indiana, U.S.A.

Now
82 °F

Scattered clouds.


Feels Like: 86 °F
Forecast: 68 / 79 °F
Wind: 9 mph from South

Location: Lansing Municipal Airport

Current Time: Aug 29, 2014 at 1:35:04 PM

Latest Report: Aug 29, 2014 at 12:55 PM


Visibility: 10 mi

Pressure: 29.97 "Hg

Humidity: 72%

Dew point: 72 °F

Location of GaryLocation

Historic Weather in Gary — Graph

°F

Gary temperature yesterday

Maximum temperature yesterday: 78 °F (at 1:35 PM)
Minimum temperature yesterday: 61 °F (at 6:35 AM)
Average temperature yesterday: 69 °F

Past Weeks' High & Low Weather Summary

 TemperatureHumidityPressure
High89 °F (Aug 25, 12:55 PM)100% (Aug 17, 4:35 AM)30.15 "Hg (Aug 17, 4:35 AM)
Low46 °F (Aug 15, 5:55 AM)37% (Aug 15, 3:55 PM)29.72 "Hg (Aug 19, 3:15 PM)
Average72 °F82%29.98 "Hg
* Reported Aug 14 12:15 PM — Aug 29 12:15 PM, Gary, Weather by CustomWeather, © 2014

Note: Actual official high and low records may vary slightly from our data, if they occured in-between our weather recording intervals... More about our weather records

Advertising

Gary weather history for previous 24 hours

 ConditionsComfort  
Time TempWeatherWind HumidityBarometerVisibility
12:15 PM
Aug 29
80 °FScattered clouds.10 mph74%29.99 "Hg10 mi
11:55 AM79 °FBroken clouds.9 mph75%30.00 "Hg10 mi
11:15 AM80 °FSunny.13 mph72%30.00 "Hg10 mi
10:55 AM79 °FSunny.13 mph73%30.01 "Hg10 mi
10:35 AM77 °FScattered clouds.12 mph72%30.01 "Hg10 mi
10:15 AM76 °FPartly sunny.10 mph76%30.01 "Hg10 mi
9:55 AM75 °FPartly sunny.9 mph78%30.01 "Hg10 mi
9:35 AM74 °FScattered clouds.10 mph78%30.01 "Hg10 mi
9:15 AM72 °FScattered clouds.7 mph81%30.00 "Hg10 mi
8:55 AM71 °FMore clouds than sun.7 mph82%30.01 "Hg10 mi
8:35 AM71 °FPartly sunny.8 mph82%30.01 "Hg10 mi
8:15 AM71 °FScattered clouds.7 mph83%30.01 "Hg10 mi
7:55 AM70 °FPartly sunny.8 mph84%30.01 "Hg10 mi
7:35 AM70 °FMostly cloudy.7 mph84%30.01 "Hg10 mi
7:15 AM69 °FMostly cloudy.7 mph84%30.01 "Hg10 mi
6:55 AM69 °FOvercast.8 mph85%30.01 "Hg10 mi
6:15 AM69 °FOvercast.8 mph85%30.00 "Hg10 mi
5:55 AM69 °FOvercast.7 mph84%29.99 "Hg10 mi
5:35 AM69 °FOvercast.6 mph84%29.99 "Hg10 mi
5:15 AM69 °FPassing clouds.6 mph84%29.99 "Hg10 mi
4:55 AM69 °FClear.5 mph84%29.99 "Hg10 mi
4:35 AM69 °FClear.7 mph83%29.99 "Hg10 mi
4:15 AM70 °FClear.6 mph81%29.99 "Hg10 mi
3:55 AM70 °FClear.7 mph82%29.99 "Hg10 mi
3:35 AM70 °FClear.7 mph81%29.99 "Hg10 mi
3:15 AM70 °FClear.8 mph82%29.99 "Hg10 mi
2:55 AM70 °FClear.7 mph81%29.99 "Hg10 mi
2:35 AM70 °FClear.9 mph81%29.99 "Hg10 mi
2:15 AM70 °FClear.8 mph83%29.99 "Hg10 mi
1:55 AM70 °FClear.7 mph83%30.00 "Hg10 mi
1:35 AM70 °FClear.7 mph84%30.00 "Hg10 mi
1:15 AM70 °FClear.8 mph83%30.01 "Hg10 mi
12:55 AM70 °FClear.6 mph85%30.02 "Hg10 mi
12:35 AM71 °FClear.6 mph84%30.03 "Hg10 mi
12:15 AM70 °FLight rain. Clear.8 mph85%30.04 "Hg10 mi
11:55 PM
Aug 28
70 °FLight rain. Clear.7 mph85%30.04 "Hg7 mi
11:35 PM70 °FLight rain. Passing clouds.5 mph86%30.05 "Hg10 mi
11:15 PM70 °FLight rain. Overcast.No wind85%30.05 "Hg10 mi
10:55 PM70 °FLight rain. Overcast.5 mph86%30.05 "Hg10 mi
10:35 PM70 °FLight rain. Mostly cloudy.3 mph85%30.05 "Hg10 mi
10:15 PM71 °FMostly cloudy.No wind79%30.06 "Hg10 mi
9:55 PM71 °FMostly cloudy.No wind78%30.06 "Hg10 mi
9:15 PM71 °FPassing clouds.No wind78%30.06 "Hg10 mi
8:55 PM71 °FPassing clouds.5 mph80%30.06 "Hg10 mi
8:15 PM71 °FPassing clouds.3 mph78%30.05 "Hg10 mi
7:55 PM71 °FPassing clouds.5 mph78%30.05 "Hg10 mi
7:15 PM72 °FSunny.7 mph77%30.05 "Hg10 mi
6:55 PM72 °FSunny.7 mph77%30.05 "Hg10 mi
6:35 PM72 °FSunny.7 mph75%30.05 "Hg10 mi
6:15 PM72 °FSunny.8 mph72%30.05 "Hg10 mi
5:55 PM73 °FSunny.9 mph71%30.05 "Hg10 mi
5:35 PM74 °FSunny.8 mph69%30.06 "Hg10 mi
5:15 PM75 °FSunny.10 mph68%30.05 "Hg10 mi
4:55 PM75 °FSunny.9 mph67%30.05 "Hg10 mi
4:35 PM75 °FSunny.8 mph66%30.05 "Hg10 mi
4:15 PM76 °FScattered clouds.8 mph65%30.06 "Hg10 mi
3:55 PM76 °FScattered clouds.8 mph64%30.06 "Hg10 mi
3:35 PM77 °FScattered clouds.9 mph62%30.06 "Hg10 mi
3:15 PM76 °FSunny.8 mph62%30.08 "Hg10 mi
2:55 PM77 °FSunny.8 mph62%30.07 "Hg10 mi
2:15 PM77 °FSunny.7 mph61%30.08 "Hg10 mi
1:55 PM77 °FScattered clouds.6 mph60%30.09 "Hg10 mi
1:35 PM78 °FSunny.No wind56%30.09 "Hg10 mi
1:15 PM77 °FSunny.5 mph56%30.10 "Hg10 mi
Weather by CustomWeather, © 2014

See weather overviewHow to use our weather pages